Regional Weather Roundup
Issued by NWS

Home | Current Version | Previous Version | Graphics & Text | Print | Product List | Glossary On
Versions: 1 2 3 4 5 6 7 8 9 10 11 12 13 14 15 16 17 18 19 20 21 22 23 24 25 26 27 28 29 30 31 32 33 34 35 36 37 38 39 40 41 42 43 44 45 46 47 48 49 50
000
ASUS43 KIND 290609
RWRIN

WEATHER ROUNDUP FOR INDIANA
NATIONAL WEATHER SERVICE INDIANAPOLIS IN
200 AM EDT FRI APR 29 2016

NOTE: "FAIR" INDICATES FEW OR NO CLOUDS BELOW 12,000 FEET WITH NO
SIGNIFICANT WEATHER AND/OR OBSTRUCTIONS TO VISIBILITY.

* - STATION DOES NOT REPORT WEATHER SUCH AS PRECIPITATION OR FOG.

+ - STATION NOT QUALITY CONTROLLED BY THE NATIONAL WEATHER SERVICE.
    USE DATA WITH CAUTION...ESPECIALLY DEWPOINT AND RELATIVE
    HUMIDITY OBSERVATIONS.

INZ001>003-010>013-019-020-290700-
NORTHWEST INDIANA

CITY           SKY/WX    TMP DP  RH WIND       PRES   REMARKS
GARY /AIRPORT/ CLOUDY    47  47 100 NW5       30.02R FOG
KNOX *+        CLOUDY    50  41  71 E6        29.98S
LA PORTE +     CLOUDY    50  49  97 E6        29.99F
6HR MIN TEMP:  50; 6HR MAX TEMP:  54;

MICHIGAN CITY+ MIX PCPN  48  48 100 SE3       29.99F
MONTICELLO +   CLOUDY    53  49  85 CALM      29.98S
6HR MIN TEMP:  53; 6HR MAX TEMP:  57;

RENSSELAER +   DRIZZLE   48  46  93 W8        30.00R
VALPARAISO     CLOUDY    46  45  96 NW3       29.99S FOG
6HR MIN TEMP:  46; 6HR MAX TEMP:  53; 6HR PCP:  0.01;


$$

LMZ046-743>745-290700-
SOUTHERN LAKE MICHIGAN

STATION/POSITION TIME  TEMP    WIND        PRES    WAVE
                       AIR SEA DIR/SP/G            HT
                 (UTC) (F)     (DEG/KT/KT) (MB)    (FT)
BURNS HARBOR     0513   44     330/  4/  6 1016.3S
MICHIGAN CITY    0500   45     220/  9/  9   N/A

$$

INZ004-005-014>016-021>024-290700-
NORTH CENTRAL INDIANA

CITY           SKY/WX    TMP DP  RH WIND       PRES   REMARKS
GOSHEN         CLOUDY    46  38  73 E5        30.01R
6HR MIN TEMP:  46; 6HR MAX TEMP:  52;

LOGANSPORT +     N/A     50  48  93 E7        29.99S
PERU/GRISSOM   CLOUDY    50  49  98 E7        29.98R
6HR MIN TEMP:  50; 6HR MAX TEMP:  54; 6HR PCP: TRACE;

ROCHESTER +    CLOUDY    50  46  87 E7        30.00S
SOUTH BEND     CLOUDY    47  38  71 SE8       30.00S
6HR MIN TEMP:  47; 6HR MAX TEMP:  52;

WARSAW +       CLOUDY    45  37  76 E3        30.00F

$$

INZ006>009-017-018-025>027-290700-
NORTHEAST INDIANA

CITY           SKY/WX    TMP DP  RH WIND       PRES   REMARKS
ANGOLA *+      CLOUDY    45  30  57 E5        30.00S
AUBURN +       CLOUDY    45  36  70 CALM      30.01S
FORT WAYNE     CLOUDY    47  39  74 NE5       30.01S
6HR MIN TEMP:  46; 6HR MAX TEMP:  50;

HUNTINGTON +   CLOUDY   N/A N/A N/A E5        29.99F

$$

INZ028-029-035-036-043>045-051>053-290700-
WEST CENTRAL INDIANA

CITY           SKY/WX    TMP DP  RH WIND       PRES   REMARKS
CRAWFORDSVL +  CLEAR     51  50  99 W7        29.99S
6HR MIN TEMP:  51; 6HR MAX TEMP:  60;

GREENCASTLE +  CLEAR     54  50  87 NW6       30.01R
LAFAYETTE      CLOUDY    55  51  86 NW8       29.98S
6HR MIN TEMP:  54; 6HR MAX TEMP:  59;

TERRE HAUTE    CLEAR     54  46  74 CALM      30.00S
6HR MIN TEMP:  53; 6HR MAX TEMP:  68;


$$

INZ030>032-037>040-046>048-054>057-064-065-290700-
CENTRAL INDIANA

CITY           SKY/WX    TMP DP  RH WIND       PRES   REMARKS
CP ATTERBURY + CLEAR     54  52  94 W3        29.99S
FRANKFORT +      N/A     54  54 100 CALM      30.00S FOG
6HR MIN TEMP:  54; 6HR MAX TEMP:  60;

INDIANAPOLIS   CLEAR     55  49  80 W9        29.97R
6HR MIN TEMP:  54; 6HR MAX TEMP:  64;

-EAGLE CREEK   CLEAR     55  52  89 CALM      29.97S
6HR MIN TEMP:  55; 6HR MAX TEMP:  63;

KOKOMO *+      CLOUDY    48  45  87 E6        29.99S
6HR MIN TEMP:  48; 6HR MAX TEMP:  54;

MARION +       CLOUDY    47  44  88 E5        30.00R
SHELBYVILLE    CLOUDY    57  53  86 CALM      29.98R
6HR MIN TEMP:  57; 6HR MAX TEMP:  64;

ZIONSVILLE +   MOCLDY    53  51  94 CALM      29.99S FOG
6HR MIN TEMP:  53; 6HR MAX TEMP:  57;


$$

INZ033-034-041-042-049-050-058-059-290700-
EAST CENTRAL INDIANA

CITY           SKY/WX    TMP DP  RH WIND       PRES   REMARKS
MUNCIE         CLOUDY    50  45  83 E6        29.99R
6HR MIN TEMP:  50; 6HR MAX TEMP:  55;


$$

INZ060-061-067>069-081>083-085>088-290700-
SOUTHWEST INDIANA

CITY           SKY/WX    TMP DP  RH WIND       PRES   REMARKS
EVANSVILLE     CLEAR     60  51  72 N8        30.01R
6HR MIN TEMP:  59; 6HR MAX TEMP:  73;

HUNTINGBURG *+ CLEAR     57  50  77 N7        30.01R
6HR MIN TEMP:  57; 6HR MAX TEMP:  70;

WASHINGTON +   PTCLDY    56  52  86 N5        30.01R
6HR MIN TEMP:  56; 6HR MAX TEMP:  70;


$$

INZ062-063-066-070>080-084-089>092-290700-
SOUTH CENTRAL AND SOUTHEAST INDIANA

CITY           SKY/WX    TMP DP  RH WIND       PRES   REMARKS
BLOOMINGTON    CLEAR     56  45  66 NW3       29.99S
6HR MIN TEMP:  56; 6HR MAX TEMP:  69;

MADISON *+     CLEAR     59  50  72 CALM      30.00S
NORTH VERNON +   N/A    N/A N/A N/A CALM      29.98S FOG
SEYMOUR +      CLEAR     59  50  72 CALM      29.98S

$$




USA.gov is the U.S. government's official web portal to all federal, state and local government web resources and services.